Flag for Brazil Weather past 2 weeks in Recife, Pernambuco, Brazil

Now
79 °F

Passing clouds.


Feels Like: 82 °F
Forecast: 79 / 86 °F
Wind: 6 mph from Southeast

Location: Recife Aeroporto

Current Time: Jan 30, 2015 at 12:46:27 AM

Latest Report: Jan 30, 2015 at 12:00 AM


Visibility: N/A

Pressure: 29.92 "Hg

Humidity: 84%

Dew point: 73 °F

Location of RecifeLocation

Historic Weather in Recife — Graph

°F

Recife temperature yesterday

Maximum temperature yesterday: 86 °F (at 12:00 PM)
Minimum temperature yesterday: 75 °F (at 4:00 AM)
Average temperature yesterday: 79 °F

Past Weeks' High & Low Weather Summary

 TemperatureHumidityPressure
High88 °F (Jan 21, 1:00 PM)100% (Jan 29, 6:00 PM)30.01 "Hg (Jan 29, 6:00 PM)
Low75 °F (Jan 15, 4:00 AM)55% (Jan 23, 12:00 PM)29.83 "Hg (Jan 29, 3:00 PM)
Average82 °F73%29.93 "Hg
* Reported Jan 14 11:00 PM — Jan 29 11:00 PM, Recife, Weather by CustomWeather, © 2014

Note: Actual official high and low records may vary slightly from our data, if they occured in-between our weather recording intervals... More about our weather records

Advertising

Recife weather history for previous 24 hours

 ConditionsComfort  
Time TempWeatherWind HumidityBarometerVisibility
11:00 PM
Jan 29
79 °FPassing clouds.6 mph89%29.95 "HgN/A
10:00 PM77 °FScattered showers. Passing clouds.No wind89%N/A6 mi
9:00 PM77 °FScattered showers. Passing clouds.3 mph89%29.95 "Hg5 mi
8:00 PM77 °FLight rain. Partly cloudy.2 mph94%29.95 "Hg3 mi
7:00 PM77 °FScattered showers. Passing clouds.3 mph94%29.92 "Hg5 mi
6:00 PM75 °FScattered showers. Broken clouds.6 mph100%29.89 "Hg5 mi
5:00 PM77 °FLight rain. Broken clouds.10 mph94%29.86 "Hg2 mi
4:00 PM84 °FScattered showers. Broken clouds.7 mph70%N/AN/A
3:00 PM86 °FScattered clouds.7 mph66%29.83 "HgN/A
2:00 PM86 °FScattered clouds.8 mph66%29.86 "HgN/A
1:00 PM86 °FScattered clouds.8 mph66%29.86 "HgN/A
12:00 PM86 °FScattered clouds.9 mph62%29.89 "HgN/A
11:00 AM82 °FScattered showers. Scattered clouds.9 mph74%29.92 "HgN/A
10:00 AM84 °FScattered clouds.10 mph70%29.92 "HgN/A
9:00 AM81 °FScattered showers. Scattered clouds.7 mph84%N/AN/A
8:00 AM81 °FScattered showers. Scattered clouds.9 mph79%N/AN/A
7:00 AM77 °FScattered clouds.6 mph94%29.92 "HgN/A
6:00 AM75 °FScattered showers. Partly cloudy.3 mph94%29.89 "HgN/A
5:00 AM75 °FScattered showers. Partly cloudy.3 mph94%29.89 "HgN/A
4:00 AM75 °FPassing clouds.5 mph94%29.86 "HgN/A
3:00 AM77 °FPassing clouds.6 mph89%29.86 "HgN/A
2:00 AM77 °FPassing clouds.3 mph89%29.86 "HgN/A
1:00 AM77 °FPassing clouds.2 mph89%29.89 "HgN/A
12:00 AM79 °FPassing clouds.6 mph84%29.92 "HgN/A
Weather by CustomWeather, © 2014

See weather overviewHow to use our weather pages